{"data":{"norad_id":62984,"intl_designator":"2025-031D","name":"STARLINK-11544 [DTC]","alt_names":[],"object_type":"PAYLOAD","status":"ACTIVE","operator":null,"country":"US","launch_date":"2025-02-11","launch_site_code":"AFETR","launch_vehicle":null,"mission":null,"orbit_class":"UNKNOWN","rcs_meters":null,"size_class":null,"mass_kg":null,"dimensions":null,"purposes":["comms"],"wikipedia_slug":null,"has_3d_model":false,"image_url":null,"decayed_at":null,"tle_current":{"epoch":"2026-05-25T01:07:56.160192Z","epoch_age_seconds":77925,"freshness":"FRESH","line1":"1 62984U 25031D   26145.04717778  .00186139  00000+0  14195-2 0  9998","line2":"2 62984  43.0001 261.0061 0000229 122.6013 237.4877 15.70878393 74722","mean_motion":15.70878393,"eccentricity":2.29e-5,"inclination_deg":43.0001,"raan_deg":261.0061,"arg_perigee_deg":122.6013,"mean_anomaly_deg":237.4877,"bstar":0.0014195,"rev_number":7472,"period_min":91.668458005202,"perigee_km":356.23110886282,"apogee_km":356.53954998551,"semimajor_km":6734.5223294242,"source":"CELESTRAK","updated_at":"2026-05-25T13:38:19.830350Z"}}}